GW2639 Weather Reports


time (UTC)temp
C
wind
direction
speed
KPH
gust
KPH
rain 1hr
cm
rain 24hr
cm
rain mn
cm
humidity
%
barometer
mb
20260510164542 26 199 3.2 17.7 0.00 0.00 0.00 42 1014.3
20260510163103 26 289 4.8 19.3 0.00 0.00 0.00 41 1014.5
20260510161557 25 304 12.9 20.9 0.00 0.00 0.00 42 1014.7
20260510160055 25 255 6.4 19.3 0.00 0.00 0.00 45 1014.7
20260510154542 25 274 9.7 17.7 0.00 0.00 0.00 45 1014.9
20260510153045 24 235 4.8 14.5 0.00 0.00 0.00 48 1014.9
20260510151550 23 293 6.4 20.9 0.00 0.00 0.00 49 1015.1
20260510150051 23 209 6.4 19.3 0.00 0.00 0.00 51 1015.2
20260510144546 22 245 1.6 6.4 0.00 0.00 0.00 57 1015.3
20260510143049 21 74 3.2 6.4 0.00 0.00 0.00 67 1015.3
20260510141541 19 64 1.6 6.4 0.00 0.00 0.00 71 1015.3
20260510140039 17 49 3.2 6.4 0.00 0.00 0.00 74 1015.1
20260510134547 16 58 1.6 8.0 0.00 0.00 0.00 78 1015.2
20260510133041 15 68 4.8 11.3 0.00 0.00 0.00 82 1015.3
20260510131540 14 95 4.8 9.7 0.00 0.00 0.00 86 1015.4
20260510130041 13 112 3.2 9.7 0.00 0.00 0.00 89 1015.5
20260510124550 12 90 1.6 4.8 0.00 0.00 0.00 91 1015.8
20260510123046 11 232 1.6 6.4 0.00 0.00 0.00 92 1015.6
20260510121541 10 0 0.0 4.8 0.00 0.00 0.00 93 1015.6
20260510120040 10 237 1.6 4.8 0.00 0.00 0.00 93 1015.6
20260510114540 10 0 0.0 6.4 0.00 0.00 0.00 93 1015.4
20260510113041 10 189 0.0 6.4 0.00 0.00 0.00 93 1015.1
20260510111551 9 222 3.2 6.4 0.00 0.00 0.00 93 1014.8
20260510110041 8 216 3.2 8.0 0.00 0.00 0.00 93 1014.7
20260510104548 8 0 0.0 8.0 0.00 0.00 0.00 92 1014.7
20260510103047 8 214 3.2 8.0 0.00 0.00 0.00 92 1014.5
20260510101539 8 206 3.2 8.0 0.00 0.00 0.00 93 1014.3
20260510100047 8 222 1.6 8.0 0.00 0.00 0.00 92 1014.0
20260510094542 8 218 3.2 6.4 0.00 0.00 0.00 92 1013.9
20260510093052 8 224 3.2 9.7 0.00 0.00 0.00 92 1013.8
20260510091540 8 229 1.6 8.0 0.00 0.00 0.00 92 1013.7
20260510090043 8 208 4.8 8.0 0.00 0.00 0.00 92 1013.6
20260510084551 8 226 4.8 8.0 0.00 0.00 0.00 92 1013.5
20260510083047 8 172 4.8 8.0 0.00 0.00 0.00 92 1013.3
20260510081600 9 219 3.2 9.7 0.00 0.00 0.00 92 1013.4
20260510080039 9 214 1.6 6.4 0.00 0.00 0.00 92 1013.4
20260510074540 9 218 3.2 6.4 0.00 0.00 0.00 92 1013.3
20260510073055 9 237 3.2 4.8 0.00 0.00 0.00 92 1013.1
20260510071543 9 215 3.2 6.4 0.00 0.00 0.00 91 1013.1
20260510070042 9 224 3.2 6.4 0.00 0.00 0.00 91 1013.0
20260510064552 9 227 1.6 6.4 0.00 0.00 0.00 91 1013.0
20260510063043 10 235 1.6 9.7 0.00 0.00 0.00 91 1013.0
20260510061545 10 235 1.6 6.4 0.00 0.00 0.00 91 1013.0
20260510060048 10 246 3.2 8.0 0.00 0.00 0.00 91 1013.1
20260510054540 10 219 0.0 6.4 0.00 0.00 0.00 90 1013.2
20260510053046 10 229 3.2 4.8 0.00 0.00 0.00 90 1013.1
20260510051545 10 0 0.0 8.0 0.00 0.00 0.00 90 1013.1
20260510050046 10 235 1.6 11.3 0.00 0.00 0.00 90 1013.3
20260510044554 11 233 3.2 8.0 0.00 0.00 0.00 90 1013.3
20260510043050 11 0 0.0 6.4 0.00 0.00 0.00 89 1013.4
20260510041538 11 219 1.6 6.4 0.00 0.00 0.00 89 1013.2
20260510040046 11 222 1.6 6.4 0.00 0.00 0.00 88 1013.1
20260510034544 11 239 3.2 8.0 0.00 0.00 0.00 88 1013.3
20260510033056 12 233 3.2 8.0 0.00 0.00 0.00 87 1013.2
20260510031540 12 247 3.2 6.4 0.00 0.00 0.00 87 1012.8
20260510030106 12 276 4.8 8.0 0.00 0.00 0.00 87 1012.7
20260510024545 12 235 3.2 6.4 0.00 0.00 0.00 86 1012.4
20260510023039 13 234 4.8 8.0 0.00 0.00 0.00 85 1012.2
20260510021539 13 224 1.6 6.4 0.00 0.00 0.00 84 1011.9
20260510020039 13 221 4.8 8.0 0.00 0.00 0.00 83 1011.9
20260510014550 13 228 3.2 6.4 0.00 0.00 0.00 82 1011.7
20260510013041 14 218 3.2 9.7 0.00 0.00 0.00 80 1011.4
20260510011540 15 236 6.4 16.1 0.00 0.00 0.00 77 1011.2
20260510010039 15 222 6.4 14.5 0.00 0.00 0.00 76 1011.0
20260510004541 16 224 6.4 9.7 0.00 0.00 0.00 75 1010.8
20260510003048 16 237 6.4 11.3 0.00 0.00 0.00 74 1010.6
20260510001540 16 247 4.8 8.0 0.00 0.00 0.00 73 1010.5
20260510000046 17 235 3.2 8.0 0.00 0.00 0.00 72 1010.3
20260509234555 18 216 3.2 8.0 0.00 0.00 0.00 69 1010.3
20260509233048 19 245 0.0 6.4 0.00 0.00 0.00 63 1010.1
20260509231540 20 254 0.0 9.7 0.00 0.00 0.00 58 1010.2
20260509230048 21 251 1.6 11.3 0.00 0.00 0.00 54 1010.1
20260509224546 21 257 4.8 16.1 0.00 0.00 0.00 53 1010.0
20260509223045 21 310 6.4 14.5 0.00 0.00 0.00 52 1010.0
20260509221544 21 272 1.6 19.3 0.00 0.00 0.00 53 1010.2
20260509220047 21 321 4.8 20.9 0.00 0.00 0.00 51 1010.2
20260509214548 21 253 4.8 17.7 0.00 0.00 0.00 52 1010.2
20260509213043 21 303 4.8 16.1 0.00 0.00 0.00 52 1010.2
20260509211541 22 251 4.8 16.1 0.00 0.00 0.00 51 1010.2
20260509210040 21 245 1.6 9.7 0.00 0.00 0.00 53 1010.2
20260509204546 21 172 1.6 12.9 0.00 0.00 0.00 52 1010.2
20260509203043 21 257 1.6 9.7 0.00 0.00 0.00 53 1010.0
20260509201554 21 231 4.8 11.3 0.00 0.00 0.00 51 1009.9
20260509200051 21 193 3.2 16.1 0.00 0.00 0.00 51 1009.9
20260509194539 21 225 4.8 14.5 0.00 0.00 0.00 50 1010.0
20260509193108 21 251 3.2 12.9 0.00 0.00 0.00 51 1009.9
20260509191546 22 279 4.8 14.5 0.00 0.00 0.00 49 1009.9
20260509190046 21 0 1.6 12.9 0.00 0.00 0.00 49 1010.0
20260509184545 22 255 4.8 12.9 0.00 0.00 0.00 49 1009.9
20260509183039 21 251 6.4 20.9 0.00 0.00 0.00 52 1009.9
20260509181545 20 284 1.6 16.1 0.00 0.00 0.00 52 1010.0
20260509180047 21 325 4.8 14.5 0.00 0.00 0.00 51 1010.0
20260509174545 21 349 3.2 14.5 0.00 0.00 0.00 51 1010.1
20260509173044 20 239 3.2 11.3 0.00 0.00 0.00 53 1010.3
20260509171545 20 185 1.6 11.3 0.00 0.00 0.00 53 1010.4
20260509170047 20 252 8.0 19.3 0.00 0.00 0.00 53 1010.6